Location: Gandikunta
(16.3784°N, 80.8378°E)
Time: 01:24:21
(UTC+00:00)

Cosmos 1992 Rocket - Pass Details

Date: 19 May 2025
Orbit: 755 x 761 km, 74.0° (Epoch: 18 June)

Event Time Altitude Azimuth Distance (km) Brightness Sun altitude
Rises 22:03:47 0° 342° (NNW) 3,205 7.4 -26.8°
Reaches altitude 10° 22:06:09 10° 340° (NNW) 2,278 6.6 -26.3°
Enters shadow 22:10:21 55° 311° (NW) 898 4.2 -25.5°
